Погода в Магдагачи

Погода в Магдагачи : погода сейчас, прогноз погоды и архив. Всё, что Вы хотите узнать о погоде в Магдагачи!

Хотите узнать прогноз погоды в Магдагачи? Тогда Вам сюда: Погода в Магдагачи

Поиск расширенной информации на нашем сайте:

Другие новости

Новости СМИ2

Главная страница сайта

Новости сайта

03.07.2017

Напоминаем, что на нашем специализированном сайте Метеоцентр.Азия вы можете получить высокодетализированные автоматические прогнозы погоды по пунктам России, СНГ и мира в авиационном формате (включающие направление и скорость ветра, видимость, явления погоды, количество и форму облачности, нижнюю и верхнюю границу облачности).


Погода в Магдагачи - сегодня

Время (UTC), дата Ветер
(°,м/с) 
Видим.   Явления Облачность Т
(°С)
Тd
(°С)
f(%) Тe
(°С)
Pmin
(гПа)
dP
(гПа)
Po
(мм)
O2
(г/м3)
Тmin Tmax R s Состояние
почвы
15 19.11.17 270 (З) 20000 м    ясно 
-20.5 -26.3 60 -28  1019.3  -1.2  728  319           
18 19.11.17 270 (З) 20000 м    ясно 
-20.9 -25.8 65 -28  1019.1  -0.4  728  319           
21 19.11.17 270 (З) 20000 м    ясно 
-22.3 -27.2 64 -28  1018.8  -0.5  727  321           
00 20.11.17 290 (З) 20000 м    ясно 
-21.1 -25.9 65 -29  1017.7  -0.9  727  319  -22.7      равномерный
сухой снег
100% 
03 20.11.17 270 (З) 20000 м    ясно 
-15.7 -22.7 55 -22  1015.2  -1.5  726  312           
06 20.11.17 290 (З) 20000 м    6/0 верхняя 
[Ci fib]
-13 -21.3 50 -17  1013  -1.5  725  308           
09 20.11.17 290 (З) 20000 м    8/0 верхняя 
[Ci fib]
-15.6 -22.6 55 -20  1012.1  -1.4  723  311           
12 20.11.17 270 (З) 20000 м    8/0 верхняя 
[Ci fib]
-16.7 -22.7 60 -19  1011.7  -0.6  723  312    -12.7       
15 20.11.17 270 (З) 20000 м    8/0 верхняя 
[Ci fib]
-18 -23.9 60 -21  1011.3  -0.6  723  313           
18 20.11.17 290 (З) 20000 м    5/0 верхняя 
[Ci fib]
-22.2 -26.3 69 -25  1012  723  319           
21 20.11.17 тихо ()   20000 м    ясно 
-24.8 -28 75 -25  1012.6  723  322           
00 21.11.17 тихо ()   20000 м    ясно 
-26.3 -29.4 75 -26  1013.4  0.6  723  324  -26.6      равномерный
сухой снег
100% 
03 21.11.17 050 (СВ) 20000 м    4/0 верхняя 
[Ci fib]
-16.9 -22.8 60 -19  1012.1  0.4  723  312           
06 21.11.17 050 (СВ) 20000 м    ясно 
-12.6 -19.8 55 -15  1011.3  723  307           
09 21.11.17 020 (С) 20000 м    ясно 
-14.4 -19.5 65 -17  1011.7  0.2  723  309           
12 21.11.17 020 (С) 20000 м    8/0 средняя, верхняя 
[Ac trans|Ci fib]
-18 -22.1 70 -21  1014.5  1.9  725  314    -12.3       
15 21.11.17 050 (СВ) 20000 м    10/0 средняя, верхняя 
[Ac trans|Ci fib]
-19.9 -23.2 75 -23  1015  0.2  725  317           
18 21.11.17 020 (С) 20000 м    4/0 верхняя 
[Ci fib]
-21.7 -24.2 80 -25  1015.3  -0.1  725  319           
21 21.11.17 тихо ()   20000 м    ясно 
-23.6 -25.5 84 -24  1015.2  -0.5  725  321           
00 22.11.17 160 (Ю) 20000 м    4/0 верхняя 
[Ci fib]
-24.5 -27 80 -28  1015.2  725  322  -24.7      равномерный
сухой снег
100% 
03 22.11.17 тихо ()   4000 м  в посл. час снег  10/0 средняя 
[As trans]
-16.9 -20.3 75 -17  1013.9  725  313           
06 22.11.17 тихо ()   20000 м  {снег}  6/0 верхняя 
[Ci fib]
-15 -19.2 70 -15  1013.5  725  310           
09 22.11.17 тихо ()   20000 м    5/0 верхняя 
[Ci fib]
-17.4 -21.9 68 -17  1014  0.2  725  313           
12 22.11.17 320 (СЗ) 20000 м    5/0 верхняя 
[Ci fib]
-18.5 -25.3 55 -24  1014.3  725  315    -14.7  0.0     
15 22.11.17 320 (СЗ) 20000 м    5/0 верхняя 
[Ci fib]
-20.1 -25.9 60 -23  1014.6  725  317           
Время (UTC), дата Ветер
(°,м/с) 
Видим.   Явления Облачность Т
(°С)
Тd
(°С)
f(%) Тe
(°С)
Pmin
(гПа)
dP
(гПа)
Po
(мм)
O2
(г/м3)
Тmin Tmax R s Состояние
почвы

Для получения пояснительной информации подведите курсор к названию столбца.

ПОГОДА в Магдагачи - архив

Всё, что Вы хотите узнать о погоде в Магдагачи - удобно и подробно!

Выберите нужную дату (начиная с 1 января 2015* года) и нажмите кнопку "Найти".
Будут отображены архивные сводки погоды по пункту Магдагачи, начиная с указанной даты.


Отображать данные в формате CSV (для использования в таблицах Excel)


Внимание! Наш архив погоды предназначен исключительно для личного некоммерческого использования в познавательных целях. Если Вам необходимы официальные справки о состоянии погоды (для производственных, юридических, коммерческих и т.п. целей), обращайтесь в органы Росгидромета.

*Примечание: данная дата относится к архиву по метеостанциям СССР (Россия, СНГ, Балтия).
Архив по метеостанциям Зарубежной Европы и Азии (кроме Китая) хранится 10 дней, по другим регионам земного шара (Китай, Африка, Америка, Австралия, Океания) - 1 день.

Магдагачи - район местоположения метеостанции


Название, широта, долгота, высота метеостанции:
Магдагачи 53.5°ш. 125.8°д. 370 м над ур. моря [Российская Федерация]

Дополнительная информация

В oтличие oт бoльшинства пoгoдных сайтoв мы публикуем пoдрoбную метеoинфoрмацию в детальнoм прoфессиoнальнoм фoрмате.

Характеристики температуры и влажнoсти вoздуха измеряются на высoте 2 м в тени вдали oт зданий и деревьев.
Скoрoсть ветра измеряется на высoте 10 м (на урoвне рoста челoвека скoрoсть ветра ниже в 1.5-2 раза). Если метеoстанция нахoдится в гoрoде или в лесу, тo скoрoсть ветра занижена на 2-4 м/с пo сравнению с oткрытым местoм. Скoрoсть ветра над акватoриями крупных рек и oзёр, а также на вершинах хoлмoв на 2-5 м/с выше, чем в oбычных услoвиях.
Атмoсфернoе давление в разных тoчках местнoсти мoжет значительнo oтличаться oт давления на метеoстанции, в зависимoсти oт услoвий рельефа (при пoдъёме на 10 м давление пoнижается примернo на 1 мм рт.ст.).